AKST,Max TemperatureF,Mean TemperatureF,Min TemperatureF,Max Dew PointF,MeanDew PointF,Min DewpointF,Max Humidity, Mean Humidity, Min Humidity, Max Sea Level PressureIn, Mean Sea Level PressureIn, Min Sea Level PressureIn, Max VisibilityMiles, Mean VisibilityMiles, Min VisibilityMiles, Max Wind SpeedMPH, Mean Wind SpeedMPH, Max Gust SpeedMPH,PrecipitationIn, CloudCover, Events, WindDirDegrees
2014-2-1,37,32,26,30,26,23,96,82,59,30.25,30.20,30.15,10,10,10,8,3,,0.00,2,,45
2014-2-2,39,30,21,26,23,19,96,75,55,30.34,30.27,30.25,10,10,10,14,3,,0.00,0,,38
2014-2-3,37,32,26,20,15,9,67,53,33,30.50,30.44,30.35,10,10,10,14,9,,0.00,0,,33
2014-2-4,32,28,23,10,5,2,50,39,29,30.58,30.54,30.52,10,10,10,15,7,23,0.00,0,,40
2014-2-5,34,28,21,11,4,-3,63,41,21,30.57,30.51,30.43,10,10,10,9,4,,0.00,0,,43
2014-2-6,33,24,16,12,10,8,81,59,40,30.42,30.13,29.88,10,10,10,7,3,,0.00,0,,41
2014-2-7,33,22,12,17,13,8,84,71,50,30.07,29.96,29.86,10,10,10,8,2,,0.00,0,,32
2014-2-8,33,24,14,14,11,9,84,59,40,30.14,30.09,30.04,10,10,10,8,3,,0.00,0,,53
2014-2-9,32,23,14,16,13,9,84,63,51,30.03,29.95,29.81,10,10,10,15,5,21,0.00,5,,36
2014-2-10,28,26,24,22,17,7,88,69,41,29.79,29.52,29.42,10,6,2,23,17,36,0.00,8,Snow,28
2014-2-11,28,26,24,26,23,19,93,87,78,29.68,29.38,29.16,10,4,0,22,12,33,0.00,8,Fog-Rain-Snow,34
2014-2-12,30,24,19,21,19,15,92,79,66,29.56,29.45,29.28,10,10,10,12,4,17,0.00,2,,36
2014-2-13,37,29,21,35,30,18,97,87,75,29.41,29.35,29.08,10,8,1,8,5,16,0.46,7,Rain-Snow,61
2014-2-14,41,37,33,35,34,32,96,87,70,29.45,29.21,28.92,10,8,1,9,5,17,0.57,7,Rain-Snow,183
2014-2-15,44,37,30,37,33,30,100,90,65,29.39,29.10,28.87,10,6,1,15,4,28,0.45,8,Rain-Snow,230
2014-2-16,36,32,28,32,30,28,96,89,79,29.25,29.12,29.03,10,9,2,18,4,23,0.12,6,Snow,40
2014-2-17,39,34,30,35,31,27,97,86,70,29.42,29.32,29.07,10,8,1,14,6,29,0.11,7,Rain-Snow,173
2014-2-18,34,32,30,33,32,29,100,95,89,29.38,29.17,29.08,10,5,1,16,7,26,0.21,7,Snow,33
2014-2-19,37,34,30,34,32,29,100,97,86,29.70,29.62,29.49,10,5,0,14,4,18,0.08,7,Fog-Snow,194
2014-2-20,35,32,28,33,30,26,100,95,82,30.19,29.83,29.70,10,6,1,7,2,,0.21,7,Snow,196
2014-2-21,36,30,25,31,28,24,100,90,76,30.27,30.24,30.20,10,10,10,9,2,,0.00,6,,37
2014-2-22,34,30,27,29,20,12,92,67,50,30.26,30.24,30.22,10,10,10,14,10,26,0.00,0,,31
2014-2-23,35,29,23,14,11,8,63,48,34,30.25,30.11,30.02,10,10,10,17,9,32,0.00,0,,49
2014-2-24,39,32,24,17,14,9,58,48,33,30.12,30.09,30.07,10,10,10,14,10,20,0.00,3,,34
2014-2-25,42,36,30,25,21,16,57,52,43,30.11,30.07,29.98,10,10,10,13,8,16,0.00,5,,37
2014-2-26,50,41,32,31,28,26,82,58,43,29.97,29.82,29.75,10,10,10,9,5,,0.00,2,,33
2014-2-27,44,40,35,33,31,28,83,70,60,29.90,29.83,29.76,10,10,10,6,2,,0.00,8,,198
2014-2-28,48,39,30,29,21,11,82,49,34,29.91,29.89,29.87,10,10,9,17,5,24,0.00,1,Snow,29